User: anonymous   Login
Location: State Camp
(41.2367°N, 77.7828°W)
Time: 18:14:03
(UTC-04:00)
Language:

ADEOS Rocket - Orbit

View from above orbital plane
View from above orbital plane
View from above satellite
View from above satellite

Ground track
Ground track

The orbit data is extracted from the following two-line orbital elements,

1 24279U 96046C   16180.16539638  .00000013  00000-0  57540-4 0  9995
2 24279  98.7021 162.7662 0301131 111.5170 297.3532 13.47052789976580
Epoch (UTC): 28 June 2016 03:58:10
Eccentricity: 0.0301131
inclination: 98.7021°
perigee height: 858 km
apogee height: 1308 km
right ascension of ascending node: 162.7662°
argument of perigee: 111.5170°
revolutions per day: 13.47052789
mean anomaly at epoch: 297.3532°
orbit number at epoch: 97658

The dashed part of the orbit path shows where the satellite is in the earth's shadow,  

DLR